Weather History for KPWM - August, 2013

Change the Weather History Date:

Friday, August 16, 2013

  Actual Average Record
Temperature  
Mean Temperature 64 °F 68 °F  
Max Temperature 74 °F 78 °F 95 °F (1936)
Min Temperature 53 °F 59 °F 43 °F (1964)
Degree Days  
Heating Degree Days 1 1  
Month to date heating degree days 10 7  
Since 1 June heating degree days 98 130  
Since 1 July heating degree days 17 24  
Cooling Degree Days 0 4  
Month to date cooling degree days 28 72  
Year to date cooling degree days 343 280  
Since 1 June cooling degree days 328 273  
Growing Degree Days 13 (Base 50)    
Moisture  
Dew Point 54 °F    
Average Humidity 67    
Maximum Humidity 93    
Minimum Humidity 41    
Precipitation  
Precipitation 0.00 in 0.10 in 2.00 in (1900)
Month to date precipitation 1.46 1.66  
Year to date precipitation 27.94 28.26  
Snow  
Snow 0.00 in 0.00 in 0.00 in (2002)
Month to date snowfall 0.0 0.0  
Since 1 June snowfall 0.0 0.0  
Since 1 July snowfall 0.0 0.0  
Snow Depth 0.00 in    
Sea Level Pressure  
Sea Level Pressure 30.13 in    
Wind  
Wind Speed 5 mph (SSW)    
Max Wind Speed 12 mph    
Max Gust Speed -    
Visibility 10 miles    
Events      
T = Trace of Precipitation, MM = Missing Value Source: NWS Daily Summary

Daily Weather History Graph

Daily Weather History Graph

Search for Another Location

Airport or City:

Trip Planner

Search our weather history database for the weather conditions in past years. The results will help you decide how hot, cold, wet, or windy it might be!

Date:

Astronomy

Aug. 16, 2013 Rise Set
Actual Time 5:47 AM EDT 7:42 PM EDT
Civil Twilight 5:16 AM EDT 8:13 PM EDT
Nautical Twilight 4:38 AM EDT 8:51 PM EDT
Astronomical Twilight 3:56 AM EDT 9:32 PM EDT
Moon 4:02 PM EDT (8/16) 12:43 AM EDT (8/16)
Length of Visible Light 14h 57m
Length of Day
13h 55m
Waxing Gibbous, 74% of the Moon is Illuminated
Aug 16
Waxing Gibbous
Aug 20
Full
Aug 28
Last Quarter
Sep 5
New
Sep 12
First Quarter

Hourly Weather History & Observations

Time (EDT) Temp. Dew Point Humidity Pressure Visibility Wind Dir Wind Speed Gust Speed Precip Events Conditions
4:46 AM 55.4 °F 51.8 °F 88% 30.08 in 10.0 mi WSW 3.5 mph - N/A   Clear
5:47 AM 53.6 °F 51.8 °F 94% 30.09 in 10.0 mi West 3.5 mph - N/A   Clear
6:47 AM 55.4 °F 53.6 °F 94% 30.11 in 10.0 mi SW 3.5 mph - N/A   Clear
7:46 AM 59.0 °F 53.6 °F 82% 30.12 in 10.0 mi Calm Calm - N/A   Clear
7:51 AM 59.0 °F 53.1 °F 81% 30.12 in 10.0 mi SW 3.5 mph - N/A   Clear
8:47 AM 64.4 °F 55.4 °F 73% 30.12 in 10.0 mi WNW 4.6 mph - N/A   Clear
8:51 AM 64.9 °F 55.0 °F 70% 30.12 in 10.0 mi West 5.8 mph - N/A   Clear
9:51 AM 68.0 °F 55.0 °F 63% 30.12 in 10.0 mi West 4.6 mph - N/A   Clear
10:51 AM 73.0 °F 54.0 °F 51% 30.12 in 10.0 mi Calm Calm - N/A   Partly Cloudy
11:51 AM 73.9 °F 48.9 °F 41% 30.12 in 10.0 mi Calm Calm - N/A   Scattered Clouds
12:51 PM 73.9 °F 54.0 °F 50% 30.12 in 10.0 mi SSE 9.2 mph - N/A   Scattered Clouds
1:51 PM 73.9 °F 54.0 °F 50% 30.13 in 10.0 mi SSE 9.2 mph - N/A   Scattered Clouds
2:51 PM 72.0 °F 53.1 °F 51% 30.13 in 10.0 mi South 10.4 mph - N/A   Clear
3:51 PM 73.0 °F 52.0 °F 48% 30.12 in 10.0 mi SSE 10.4 mph - N/A   Clear
4:51 PM 72.0 °F 53.1 °F 51% 30.12 in 10.0 mi South 9.2 mph - N/A   Clear
5:51 PM 71.1 °F 54.0 °F 55% 30.13 in 10.0 mi South 10.4 mph - N/A   Clear
6:51 PM 70.0 °F 53.1 °F 55% 30.13 in 10.0 mi South 10.4 mph - N/A   Clear
7:51 PM 66.9 °F 54.0 °F 63% 30.14 in 10.0 mi South 9.2 mph - N/A   Clear
8:51 PM 64.0 °F 55.9 °F 75% 30.16 in 10.0 mi SSW 4.6 mph - N/A   Clear
9:51 PM 62.1 °F 55.0 °F 78% 30.17 in 10.0 mi Calm Calm - N/A   Clear
10:51 PM 61.0 °F 55.9 °F 83% 30.17 in 10.0 mi Calm Calm - N/A   Clear
11:51 PM 59.0 °F 55.0 °F 87% 30.18 in 10.0 mi Calm Calm - N/A   Clear